| time (UTC) | temp C | wind direction | speed KPH | gust KPH | rain 1hr cm | rain 24hr cm | rain mn cm | humidity % | barometer mb |
| 20260506223037 | 6 | 5 | 4.8 | 12.9 | 0.03 | 0.61 | 0.00 | 96 | 1010.8 |
| 20260506221635 | 6 | 55 | 3.2 | 6.4 | 0.03 | 0.61 | 0.00 | 96 | 1010.7 |
| 20260506220036 | 6 | 32 | 0.0 | 4.8 | 0.03 | 0.61 | 0.00 | 96 | 1010.7 |
| 20260506214531 | 5 | 355 | 4.8 | 12.9 | 0.00 | 0.66 | 0.58 | 96 | 1010.4 |
| 20260506213031 | 5 | 5 | 4.8 | 9.7 | 0.00 | 0.66 | 0.58 | 97 | 1010.3 |
| 20260506211528 | 5 | 347 | 1.6 | 8.0 | 0.00 | 0.66 | 0.58 | 96 | 1010.2 |
| 20260506210033 | 5 | 252 | 1.6 | 9.7 | 0.00 | 0.66 | 0.58 | 96 | 1010.1 |
| 20260506204534 | 5 | 9 | 3.2 | 9.7 | 0.00 | 0.86 | 0.58 | 96 | 1010.0 |
| 20260506203028 | 5 | 355 | 4.8 | 12.9 | 0.00 | 0.86 | 0.58 | 96 | 1010.1 |
| 20260506201526 | 5 | 350 | 4.8 | 14.5 | 0.00 | 0.86 | 0.58 | 96 | 1010.0 |
| 20260506200021 | 5 | 346 | 3.2 | 16.1 | 0.00 | 0.86 | 0.58 | 96 | 1009.9 |
| 20260506194516 | 5 | 355 | 4.8 | 12.9 | 0.00 | 0.94 | 0.58 | 96 | 1009.7 |
| 20260506193017 | 5 | 9 | 3.2 | 9.7 | 0.00 | 0.94 | 0.58 | 96 | 1009.6 |
| 20260506191512 | 5 | 355 | 1.6 | 9.7 | 0.03 | 0.94 | 0.58 | 96 | 1009.4 |
| 20260506190010 | 6 | 341 | 1.6 | 9.7 | 0.03 | 0.94 | 0.58 | 96 | 1009.3 |
| 20260506184509 | 6 | 355 | 1.6 | 12.9 | 0.03 | 1.09 | 0.58 | 96 | 1009.2 |
| 20260506183007 | 6 | 360 | 1.6 | 12.9 | 0.03 | 1.09 | 0.58 | 96 | 1009.2 |
| 20260506181507 | 6 | 351 | 0.0 | 12.9 | 0.00 | 1.07 | 0.56 | 96 | 1009.0 |
| 20260506180007 | 6 | 350 | 3.2 | 8.0 | 0.03 | 1.07 | 0.56 | 96 | 1008.8 |
| 20260506174501 | 6 | 340 | 0.0 | 9.7 | 0.03 | 1.19 | 0.56 | 96 | 1008.7 |
| 20260506173115 | 6 | 321 | 3.2 | 14.5 | 0.03 | 1.19 | 0.56 | 96 | 1008.5 |
| 20260506171601 | 6 | 248 | 3.2 | 6.4 | 0.03 | 1.19 | 0.56 | 96 | 1008.4 |
| 20260506170056 | 6 | 355 | 4.8 | 19.3 | 0.00 | 1.17 | 0.53 | 96 | 1008.4 |
| 20260506164557 | 6 | 13 | 4.8 | 12.9 | 0.00 | 1.40 | 0.53 | 96 | 1008.3 |
| 20260506163054 | 6 | 355 | 3.2 | 16.1 | 0.00 | 1.40 | 0.53 | 96 | 1008.2 |
| 20260506161602 | 6 | 348 | 3.2 | 14.5 | 0.00 | 1.40 | 0.53 | 96 | 1008.1 |
| 20260506160049 | 6 | 189 | 1.6 | 14.5 | 0.00 | 1.40 | 0.53 | 96 | 1008.0 |
| 20260506154547 | 6 | 286 | 3.2 | 12.9 | 0.00 | 1.45 | 0.53 | 96 | 1007.8 |
| 20260506153046 | 6 | 45 | 3.2 | 8.0 | 0.00 | 1.45 | 0.53 | 96 | 1007.8 |
| 20260506151601 | 6 | 296 | 3.2 | 14.5 | 0.00 | 1.45 | 0.53 | 96 | 1007.7 |
| 20260506150045 | 6 | 16 | 1.6 | 12.9 | 0.00 | 1.45 | 0.53 | 96 | 1007.8 |
| 20260506144543 | 6 | 355 | 6.4 | 20.9 | 0.00 | 1.45 | 0.53 | 96 | 1007.7 |
| 20260506143048 | 6 | 19 | 4.8 | 17.7 | 0.00 | 1.45 | 0.53 | 95 | 1007.7 |
| 20260506141539 | 6 | 5 | 3.2 | 14.5 | 0.03 | 1.45 | 0.53 | 96 | 1007.5 |
| 20260506140039 | 6 | 355 | 1.6 | 16.1 | 0.03 | 1.45 | 0.53 | 96 | 1007.5 |
| 20260506134535 | 7 | 348 | 4.8 | 19.3 | 0.03 | 1.45 | 0.53 | 96 | 1007.3 |
| 20260506133039 | 7 | 323 | 1.6 | 14.5 | 0.05 | 1.45 | 0.53 | 96 | 1007.3 |
| 20260506131536 | 7 | 21 | 6.4 | 19.3 | 0.03 | 1.42 | 0.51 | 96 | 1007.2 |
| 20260506130032 | 7 | 345 | 3.2 | 14.5 | 0.03 | 1.42 | 0.51 | 96 | 1007.0 |
| 20260506124530 | 7 | 17 | 6.4 | 12.9 | 0.05 | 1.42 | 0.51 | 96 | 1006.9 |
| 20260506123029 | 7 | 18 | 0.0 | 16.1 | 0.03 | 1.42 | 0.51 | 96 | 1006.9 |
| 20260506121527 | 7 | 5 | 6.4 | 17.7 | 0.05 | 1.42 | 0.51 | 96 | 1006.8 |
| 20260506120025 | 7 | 342 | 4.8 | 16.1 | 0.05 | 1.42 | 0.51 | 96 | 1006.8 |
| 20260506114533 | 7 | 331 | 1.6 | 8.0 | 0.05 | 1.42 | 0.48 | 96 | 1006.6 |
| 20260506113021 | 7 | 5 | 1.6 | 14.5 | 0.05 | 1.42 | 0.48 | 96 | 1006.6 |
| 20260506111519 | 7 | 360 | 3.2 | 9.7 | 0.03 | 1.40 | 0.46 | 96 | 1006.5 |
| 20260506110017 | 7 | 39 | 3.2 | 16.1 | 0.03 | 1.40 | 0.46 | 96 | 1006.4 |
| 20260506104516 | 7 | 344 | 3.2 | 12.9 | 0.00 | 1.37 | 0.43 | 96 | 1006.4 |
| 20260506103017 | 7 | 23 | 4.8 | 14.5 | 0.03 | 1.37 | 0.43 | 96 | 1006.3 |
| 20260506101531 | 7 | 36 | 1.6 | 8.0 | 0.03 | 1.37 | 0.43 | 97 | 1006.1 |
| 20260506100014 | 7 | 28 | 4.8 | 14.5 | 0.03 | 1.37 | 0.43 | 97 | 1006.0 |
| 20260506094517 | 7 | 42 | 1.6 | 16.1 | 0.03 | 1.42 | 0.43 | 96 | 1005.9 |
| 20260506093015 | 7 | 17 | 4.8 | 12.9 | 0.03 | 1.40 | 0.43 | 96 | 1005.8 |
| 20260506091519 | 7 | 339 | 3.2 | 16.1 | 0.05 | 1.40 | 0.43 | 96 | 1005.7 |
| 20260506090013 | 7 | 14 | 4.8 | 12.9 | 0.05 | 1.40 | 0.43 | 96 | 1005.7 |
| 20260506084518 | 7 | 5 | 1.6 | 6.4 | 0.08 | 1.42 | 0.43 | 97 | 1005.6 |
| 20260506083012 | 7 | 26 | 1.6 | 8.0 | 0.05 | 1.42 | 0.41 | 97 | 1005.5 |
| 20260506081512 | 7 | 360 | 1.6 | 8.0 | 0.05 | 1.40 | 0.38 | 96 | 1005.5 |
| 20260506073010 | 6 | 5 | 1.6 | 8.0 | 0.00 | 1.37 | 0.33 | 96 | 1005.2 |
| 20260506071514 | 6 | 29 | 4.8 | 12.9 | 0.03 | 1.37 | 0.33 | 96 | 1005.0 |
| 20260506061504 | 6 | 5 | 1.6 | 9.7 | 0.05 | 1.35 | 0.33 | 96 | 1004.6 |
| 20260506044559 | 7 | 29 | 4.8 | 9.7 | 0.05 | 1.27 | 0.25 | 96 | 1004.6 |
| 20260506043052 | 7 | 45 | 1.6 | 6.4 | 0.08 | 1.27 | 0.25 | 96 | 1004.6 |
| 20260506041603 | 7 | 346 | 3.2 | 8.0 | 0.08 | 1.27 | 0.23 | 96 | 1004.6 |
| 20260506040048 | 7 | 355 | 1.6 | 6.4 | 0.08 | 1.24 | 0.23 | 96 | 1004.6 |
| 20260506034548 | 7 | 9 | 1.6 | 9.7 | 0.10 | 1.24 | 0.20 | 96 | 1004.6 |
| 20260506033046 | 7 | 5 | 4.8 | 8.0 | 0.08 | 1.22 | 0.18 | 96 | 1004.7 |
| 20260506031547 | 7 | 24 | 1.6 | 9.7 | 0.05 | 1.19 | 0.15 | 96 | 1004.7 |
| 20260506030043 | 7 | 360 | 1.6 | 6.4 | 0.05 | 1.17 | 0.15 | 96 | 1004.8 |
| 20260506024543 | 7 | 360 | 1.6 | 4.8 | 0.00 | 1.17 | 0.10 | 96 | 1004.9 |
| 20260506023042 | 7 | 36 | 3.2 | 6.4 | 0.03 | 1.17 | 0.10 | 96 | 1005.0 |
| 20260506021541 | 7 | 355 | 3.2 | 8.0 | 0.03 | 1.17 | 0.10 | 96 | 1004.9 |
| 20260506020038 | 7 | 5 | 4.8 | 8.0 | 0.05 | 1.17 | 0.10 | 96 | 1005.0 |
| 20260506014546 | 7 | 41 | 1.6 | 8.0 | 0.05 | 1.19 | 0.10 | 96 | 1005.2 |
| 20260506013038 | 7 | 30 | 1.6 | 8.0 | 0.03 | 1.17 | 0.08 | 96 | 1005.3 |
| 20260506011539 | 7 | 29 | 3.2 | 8.0 | 0.05 | 1.17 | 0.08 | 96 | 1005.4 |
| 20260506010033 | 7 | 38 | 1.6 | 8.0 | 0.03 | 1.17 | 0.05 | 96 | 1005.4 |
| 20260506004539 | 7 | 13 | 0.0 | 8.0 | 0.03 | 1.17 | 0.05 | 96 | 1005.5 |
| 20260506003030 | 7 | 11 | 3.2 | 8.0 | 0.03 | 1.17 | 0.05 | 96 | 1005.7 |
| 20260506001528 | 7 | 5 | 1.6 | 6.4 | 0.00 | 1.14 | 0.05 | 96 | 1005.8 |
| 20260506000035 | 7 | 36 | 3.2 | 8.0 | 0.00 | 1.14 | 0.05 | 96 | 1005.9 |
| 20260505234524 | 7 | 74 | 1.6 | 8.0 | 0.00 | 1.14 | 0.05 | 96 | 1006.1 |
| 20260505233022 | 7 | 55 | 0.0 | 4.8 | 0.03 | 1.14 | 0.05 | 96 | 1006.2 |
| 20260505231523 | 7 | 55 | 1.6 | 6.4 | 0.03 | 1.14 | 0.05 | 96 | 1006.2 |
| 20260505230020 | 7 | 22 | 0.0 | 4.8 | 0.05 | 1.14 | 0.05 | 96 | 1006.2 |
| 20260505224532 | 7 | 32 | 4.8 | 8.0 | 0.05 | 1.14 | 0.05 | 96 | 1006.3 |